Location: *
(13.0000°N, 151.6000°E)
Time: 15:43:10
(UTC+00:00)

GPS 2-12 Rocket1 - Pass Details

Date: 01 April 2020
Orbit: 586 x 652 km, 20.0° (Epoch: 04 June)

Event Time Altitude Azimuth Distance (km) Brightness Sun altitude
Exits shadow 18:21:03 29° 336° (NNW) 1,067 4.1 -22.1°
Maximum altitude 18:22:02 33° 3° (N) 990 4.2 -21.9°
Drops below altitude 10° 18:26:04 10° 68° (ENE) 1,912 6.7 -20.9°
Sets 18:28:35 0° 78° (ENE) 2,823 8.1 -20.3°
